"read_dt","SO2 (ppb)","flags","PMT voltage (V)","lamp voltage (V)","lamp intensity (Hz)","internal temp (C)","react chamber temp (C)","sample flow (l/min)","pres (mmHg)","SO2 bkg (ppb)","SO2 coefficient"
2014-11-08 00:00:00,2058E-3,5C000000,-0724,0832,12271,028.1,045.4,0.471,722.1,01.20,0.508
2014-11-08 00:01:00,1914E-3,5C000000,-0724,0832,11983,028.1,045.4,0.472,721.9,01.20,0.508
2014-11-08 00:02:00,2028E-3,5C000000,-0724,0833,12084,028.1,045.4,0.471,721.8,01.20,0.508
2014-11-08 00:03:00,2053E-3,5C000000,-0724,0831,12238,028.1,045.4,0.472,721.8,01.20,0.508
2014-11-08 00:04:00,2198E-3,5C000000,-0724,0831,12155,028.0,045.4,0.472,722.0,01.20,0.508
2014-11-08 00:05:00,2060E-3,5C000000,-0724,0831,12226,028.0,045.4,0.471,721.8,01.20,0.508
2014-11-08 00:06:00,2108E-3,5C000000,-0724,0832,12033,028.1,045.5,0.472,722.0,01.20,0.508
2014-11-08 00:07:00,2048E-3,5C000000,-0724,0833,12247,028.1,045.4,0.472,722.0,01.20,0.508
2014-11-08 00:08:00,1922E-3,5C000000,-0724,0832,12136,028.2,045.5,0.472,722.0,01.20,0.508
2014-11-08 00:09:00,2055E-3,5C000000,-0724,0832,12166,028.2,045.5,0.472,722.0,01.20,0.508
2014-11-08 00:10:00,2087E-3,5C000000,-0724,0831,12162,028.3,045.5,0.472,721.9,01.20,0.508
2014-11-08 00:11:00,2004E-3,5C000000,-0724,0832,12185,028.3,045.5,0.471,721.9,01.20,0.508
2014-11-08 00:12:00,1917E-3,5C000000,-0724,0832,12032,028.4,045.4,0.471,721.9,01.20,0.508
2014-11-08 00:13:00,2169E-3,5C000000,-0724,0830,12001,028.4,045.4,0.471,722.0,01.20,0.508
2014-11-08 00:14:00,2186E-3,5C000000,-0724,0831,12272,028.4,045.5,0.471,721.9,01.20,0.508
2014-11-08 00:15:00,2018E-3,5C000000,-0724,0832,12291,028.4,045.5,0.471,722.0,01.20,0.508
2014-11-08 00:16:00,1946E-3,5C000000,-0724,0831,12103,028.5,045.5,0.471,722.0,01.20,0.508
2014-11-08 00:17:00,2066E-3,5C000000,-0724,0832,12207,028.5,045.5,0.471,722.1,01.20,0.508
2014-11-08 00:18:00,2108E-3,5C000000,-0724,0832,12160,028.6,045.5,0.471,722.2,01.20,0.508
2014-11-08 00:19:00,2007E-3,5C000000,-0724,0833,12122,028.6,045.4,0.471,722.0,01.20,0.508
2014-11-08 00:20:00,2057E-3,5C000000,-0724,0832,12183,028.6,045.5,0.471,722.0,01.20,0.508
2014-11-08 00:21:00,2135E-3,5C000000,-0724,0833,12269,028.7,045.5,0.471,722.0,01.20,0.508
2014-11-08 00:22:00,2159E-3,5C000000,-0724,0833,12021,028.7,045.5,0.471,721.9,01.20,0.508
2014-11-08 00:23:00,2190E-3,5C000000,-0724,0832,12116,028.7,045.4,0.471,721.9,01.20,0.508
2014-11-08 00:24:00,2119E-3,5C000000,-0724,0832,12072,028.8,045.4,0.471,721.9,01.20,0.508
2014-11-08 00:25:00,2129E-3,5C000000,-0724,0833,12032,028.8,045.4,0.471,721.9,01.20,0.508
2014-11-08 00:26:00,1939E-3,5C000000,-0724,0831,12228,028.8,045.5,0.470,722.0,01.20,0.508
2014-11-08 00:27:00,2103E-3,5C000000,-0724,0832,12333,028.9,045.5,0.470,721.9,01.20,0.508
2014-11-08 00:28:00,2044E-3,5C000000,-0724,0833,12195,028.8,045.5,0.471,722.1,01.20,0.508
2014-11-08 00:29:00,2213E-3,5C000000,-0724,0832,12031,028.9,045.4,0.471,722.0,01.20,0.508
2014-11-08 00:30:00,2158E-3,5C000000,-0724,0832,12173,028.9,045.5,0.470,722.0,01.20,0.508
2014-11-08 00:31:00,2035E-3,5C000000,-0724,0831,12128,028.9,045.5,0.470,722.1,01.20,0.508
2014-11-08 00:32:00,2109E-3,5C000000,-0724,0832,12301,028.9,045.5,0.471,721.9,01.20,0.508
2014-11-08 00:33:00,2103E-3,5C000000,-0724,0832,12160,028.9,045.5,0.470,721.9,01.20,0.508
2014-11-08 00:34:00,1948E-3,5C000000,-0724,0832,12249,028.9,045.5,0.470,721.9,01.20,0.508
2014-11-08 00:35:00,2128E-3,5C000000,-0724,0830,12223,028.9,045.5,0.471,722.1,01.20,0.508
2014-11-08 00:36:00,1911E-3,5C000000,-0724,0832,12201,028.7,045.4,0.470,722.2,01.20,0.508
2014-11-08 00:37:00,2021E-3,5C000000,-0724,0833,12105,028.6,045.5,0.471,721.9,01.20,0.508
2014-11-08 00:38:00,2019E-3,5C000000,-0724,0832,12133,028.6,045.4,0.470,721.9,01.20,0.508
2014-11-08 00:39:00,2155E-3,5C000000,-0724,0833,12191,028.5,045.4,0.471,722.1,01.20,0.508
2014-11-08 00:40:00,2115E-3,5C000000,-0724,0831,12340,028.4,045.4,0.470,722.3,01.20,0.508
2014-11-08 00:41:00,2035E-3,5C000000,-0724,0832,12158,028.3,045.4,0.471,722.0,01.20,0.508
2014-11-08 00:42:00,2149E-3,5C000000,-0724,0831,12165,028.3,045.4,0.471,722.1,01.20,0.508
2014-11-08 00:43:00,1974E-3,5C000000,-0724,0832,12365,028.2,045.4,0.471,722.3,01.20,0.508
2014-11-08 00:44:00,1994E-3,5C000000,-0724,0831,12195,028.2,045.5,0.471,722.2,01.20,0.508
2014-11-08 00:45:00,2190E-3,5C000000,-0724,0831,12122,028.1,045.4,0.472,722.2,01.20,0.508
2014-11-08 00:46:00,2202E-3,5C000000,-0724,0832,12214,028.1,045.4,0.471,722.1,01.20,0.508
2014-11-08 00:47:00,2095E-3,5C000000,-0724,0831,12068,028.1,045.4,0.472,722.2,01.20,0.508
2014-11-08 00:48:00,2067E-3,5C000000,-0724,0832,12128,028.2,045.4,0.472,722.2,01.20,0.508
2014-11-08 00:49:00,2101E-3,5C000000,-0724,0832,12186,028.2,045.4,0.471,722.3,01.20,0.508
2014-11-08 00:50:00,2051E-3,5C000000,-0724,0832,12148,028.3,045.4,0.472,722.3,01.20,0.508
2014-11-08 00:51:00,2148E-3,5C000000,-0724,0831,12185,028.3,045.5,0.472,722.4,01.20,0.508
2014-11-08 00:52:00,2181E-3,5C000000,-0724,0832,12124,028.3,045.5,0.471,722.1,01.20,0.508
2014-11-08 00:53:00,2097E-3,5C000000,-0724,0831,12182,028.4,045.4,0.471,722.4,01.20,0.508
2014-11-08 00:54:00,2082E-3,5C000000,-0724,0831,12038,028.4,045.4,0.471,722.3,01.20,0.508
2014-11-08 00:55:00,2006E-3,5C000000,-0724,0832,11912,028.4,045.4,0.472,722.2,01.20,0.508
2014-11-08 00:56:00,2134E-3,5C000000,-0724,0832,12220,028.5,045.4,0.472,722.4,01.20,0.508
2014-11-08 00:57:00,1957E-3,5C000000,-0724,0832,11940,028.5,045.4,0.471,722.4,01.20,0.508
2014-11-08 00:58:00,2053E-3,5C000000,-0724,0833,12148,028.6,045.5,0.471,722.4,01.20,0.508
2014-11-08 00:59:00,2158E-3,5C000000,-0724,0832,12100,028.6,045.5,0.471,722.4,01.20,0.508
2014-11-08 01:00:00,2094E-3,5C000000,-0724,0831,12001,028.6,045.4,0.471,722.4,01.20,0.508
2014-11-08 01:01:00,2082E-3,5C000000,-0724,0832,12141,028.7,045.5,0.471,722.3,01.20,0.508
2014-11-08 01:02:00,2084E-3,5C000000,-0724,0833,12183,028.7,045.4,0.471,722.4,01.20,0.508
2014-11-08 01:03:00,2110E-3,5C000000,-0724,0833,12249,028.8,045.4,0.471,722.3,01.20,0.508
2014-11-08 01:04:00,2112E-3,5C000000,-0724,0833,12194,028.8,045.5,0.471,722.4,01.20,0.508
2014-11-08 01:05:00,2007E-3,5C000000,-0724,0832,12162,028.8,045.5,0.471,722.3,01.20,0.508
2014-11-08 01:06:00,2000E-3,5C000000,-0724,0833,12203,028.8,045.5,0.471,722.2,01.20,0.508
2014-11-08 01:07:00,2218E-3,5C000000,-0724,0832,12043,028.8,045.5,0.471,722.4,01.20,0.508
2014-11-08 01:08:00,2069E-3,5C000000,-0724,0832,12171,028.9,045.5,0.470,722.2,01.20,0.508
2014-11-08 01:09:00,2020E-3,5C000000,-0724,0832,12198,028.9,045.5,0.471,722.5,01.20,0.508
2014-11-08 01:10:00,2052E-3,5C000000,-0724,0832,12385,028.9,045.5,0.471,722.4,01.20,0.508
2014-11-08 01:11:00,2100E-3,5C000000,-0724,0832,12083,028.9,045.5,0.470,722.4,01.20,0.508
2014-11-08 01:12:00,1973E-3,5C000000,-0724,0833,12153,028.9,045.4,0.471,722.4,01.20,0.508
2014-11-08 01:13:00,2106E-3,5C000000,-0724,0832,11966,029.0,045.5,0.470,722.5,01.20,0.508
2014-11-08 01:14:00,2099E-3,5C000000,-0724,0832,12167,028.9,045.5,0.470,722.6,01.20,0.508
2014-11-08 01:15:00,1987E-3,5C000000,-0724,0832,12130,028.9,045.5,0.471,722.5,01.20,0.508
2014-11-08 01:16:00,2048E-3,5C000000,-0724,0833,12257,028.9,045.5,0.470,722.6,01.20,0.508
2014-11-08 01:17:00,2069E-3,5C000000,-0724,0833,12382,028.8,045.4,0.471,722.6,01.20,0.508
2014-11-08 01:18:00,2017E-3,5C000000,-0724,0832,12256,028.8,045.5,0.470,722.2,01.20,0.508
2014-11-08 01:19:00,2223E-3,5C000000,-0724,0833,12109,028.8,045.5,0.470,722.4,01.20,0.508
2014-11-08 01:20:00,2159E-3,5C000000,-0724,0832,12362,028.7,045.5,0.471,722.7,01.20,0.508
2014-11-08 01:21:00,1993E-3,5C000000,-0724,0833,12144,028.6,045.4,0.471,722.6,01.20,0.508
2014-11-08 01:22:00,2205E-3,5C000000,-0724,0832,12054,028.6,045.5,0.471,722.7,01.20,0.508
2014-11-08 01:23:00,2168E-3,5C000000,-0724,0833,12297,028.6,045.4,0.471,722.7,01.20,0.508
2014-11-08 01:24:00,2031E-3,5C000000,-0724,0833,12253,028.5,045.4,0.471,722.5,01.20,0.508
2014-11-08 01:25:00,2096E-3,5C000000,-0724,0833,12197,028.5,045.4,0.471,722.7,01.20,0.508
2014-11-08 01:26:00,1940E-3,5C000000,-0724,0831,12036,028.5,045.5,0.471,722.5,01.20,0.508
2014-11-08 01:27:00,2066E-3,5C000000,-0724,0832,12184,028.4,045.4,0.472,722.6,01.20,0.508
2014-11-08 01:28:00,2081E-3,5C000000,-0724,0833,12066,028.3,045.4,0.471,722.6,01.20,0.508
2014-11-08 01:29:00,2079E-3,5C000000,-0724,0832,12036,028.3,045.5,0.472,722.7,01.20,0.508
2014-11-08 01:30:00,1923E-3,5C000000,-0724,0832,12274,028.3,045.4,0.471,722.4,01.20,0.508
2014-11-08 01:31:00,2100E-3,5C000000,-0724,0832,12224,028.3,045.4,0.472,722.5,01.20,0.508
2014-11-08 01:32:00,1978E-3,5C000000,-0724,0832,12149,028.2,045.5,0.472,722.4,01.20,0.508
2014-11-08 01:33:00,2015E-3,5C000000,-0724,0832,12152,028.3,045.5,0.471,722.6,01.20,0.508
2014-11-08 01:34:00,1977E-3,5C000000,-0724,0832,12053,028.2,045.4,0.472,722.6,01.20,0.508
2014-11-08 01:35:00,2049E-3,5C000000,-0724,0833,12009,028.2,045.4,0.472,722.6,01.20,0.508
2014-11-08 01:36:00,2049E-3,5C000000,-0724,0832,12214,028.2,045.5,0.471,722.6,01.20,0.508
2014-11-08 01:37:00,2079E-3,5C000000,-0724,0832,12061,028.3,045.5,0.472,722.7,01.20,0.508
2014-11-08 01:38:00,1953E-3,5C000000,-0724,0832,12045,028.3,045.5,0.472,722.7,01.20,0.508
2014-11-08 01:39:00,2183E-3,5C000000,-0724,0833,12210,028.3,045.5,0.472,722.7,01.20,0.508
2014-11-08 01:40:00,1987E-3,5C000000,-0724,0832,12233,028.4,045.4,0.471,722.6,01.20,0.508
2014-11-08 01:41:00,1948E-3,5C000000,-0724,0832,12169,028.4,045.4,0.472,722.6,01.20,0.508
2014-11-08 01:42:00,2088E-3,5C000000,-0724,0831,12092,028.4,045.5,0.472,722.6,01.20,0.508
2014-11-08 01:43:00,1999E-3,5C000000,-0724,0832,12056,028.5,045.5,0.472,722.7,01.20,0.508
2014-11-08 01:44:00,2154E-3,5C000000,-0724,0833,12066,028.5,045.5,0.471,722.7,01.20,0.508
2014-11-08 01:45:00,2001E-3,5C000000,-0724,0832,12116,028.5,045.5,0.471,722.7,01.20,0.508
2014-11-08 01:46:00,2077E-3,5C000000,-0724,0832,12247,028.6,045.5,0.471,722.7,01.20,0.508
2014-11-08 01:47:00,2119E-3,5C000000,-0724,0832,12436,028.6,045.5,0.471,722.6,01.20,0.508
2014-11-08 01:48:00,2006E-3,5C000000,-0724,0832,12222,028.7,045.5,0.471,722.7,01.20,0.508
2014-11-08 01:49:00,2074E-3,5C000000,-0724,0833,12075,028.7,045.5,0.471,722.4,01.20,0.508
2014-11-08 01:50:00,2230E-3,5C000000,-0724,0832,12064,028.7,045.5,0.471,722.6,01.20,0.508
2014-11-08 01:51:00,2114E-3,5C000000,-0724,0832,12102,028.7,045.5,0.471,722.5,01.20,0.508
2014-11-08 01:52:00,2020E-3,5C000000,-0724,0832,12155,028.8,045.5,0.471,722.6,01.20,0.508
2014-11-08 01:53:00,2092E-3,5C000000,-0724,0831,12123,028.8,045.5,0.471,722.6,01.20,0.508
2014-11-08 01:54:00,2101E-3,5C000000,-0724,0832,12288,028.8,045.5,0.470,722.4,01.20,0.508
2014-11-08 01:55:00,2011E-3,5C000000,-0724,0832,12197,028.8,045.4,0.471,722.6,01.20,0.508
2014-11-08 01:56:00,2138E-3,5C000000,-0724,0831,12233,028.9,045.4,0.471,722.7,01.20,0.508
2014-11-08 01:57:00,2050E-3,5C000000,-0724,0833,11998,028.9,045.5,0.471,722.8,01.20,0.508
2014-11-08 01:58:00,2186E-3,5C000000,-0724,0833,12357,028.9,045.5,0.470,722.7,01.20,0.508
2014-11-08 01:59:00,2101E-3,5C000000,-0724,0833,11968,028.9,045.5,0.471,722.6,01.20,0.508
2014-11-08 02:00:00,2094E-3,5C000000,-0724,0833,12131,028.9,045.5,0.471,722.5,01.20,0.508
2014-11-08 02:01:00,2042E-3,5C000000,-0724,0832,12132,029.0,045.5,0.470,722.5,01.20,0.508
2014-11-08 02:02:00,2008E-3,5C000000,-0724,0833,12153,029.0,045.5,0.471,722.5,01.20,0.508
2014-11-08 02:03:00,2104E-3,5C000000,-0724,0832,12093,029.0,045.4,0.470,722.8,01.20,0.508
2014-11-08 02:04:00,2060E-3,5C000000,-0724,0832,12256,029.0,045.4,0.470,722.7,01.20,0.508
2014-11-08 02:05:00,1946E-3,5C000000,-0724,0833,12069,029.0,045.5,0.471,722.9,01.20,0.508
2014-11-08 02:06:00,2036E-3,5C000000,-0724,0832,12028,029.0,045.5,0.470,722.7,01.20,0.508
2014-11-08 02:07:00,2040E-3,5C000000,-0724,0833,12104,029.1,045.5,0.471,722.7,01.20,0.508
2014-11-08 02:08:00,1995E-3,5C000000,-0724,0833,12322,029.1,045.5,0.470,722.8,01.20,0.508
2014-11-08 02:09:00,2021E-3,5C000000,-0724,0833,12089,029.1,045.5,0.470,722.7,01.20,0.508
2014-11-08 02:10:00,2144E-3,5C000000,-0724,0832,12095,029.1,045.5,0.470,722.7,01.20,0.508
2014-11-08 02:11:00,2108E-3,5C000000,-0724,0832,12362,029.1,045.5,0.470,722.7,01.20,0.508
2014-11-08 02:12:00,2073E-3,5C000000,-0724,0833,12233,029.2,045.5,0.470,722.7,01.20,0.508
2014-11-08 02:13:00,2054E-3,5C000000,-0724,0832,12140,029.2,045.5,0.470,722.6,01.20,0.508
2014-11-08 02:14:00,2201E-3,5C000000,-0724,0832,12149,029.2,045.5,0.471,722.8,01.20,0.508
2014-11-08 02:15:00,1993E-3,5C000000,-0724,0833,12221,029.2,045.5,0.470,722.8,01.20,0.508
2014-11-08 02:16:00,2041E-3,5C000000,-0724,0833,12098,029.2,045.5,0.471,723.0,01.20,0.508
2014-11-08 02:17:00,2045E-3,5C000000,-0724,0832,12119,029.2,045.5,0.470,722.8,01.20,0.508
2014-11-08 02:18:00,2106E-3,5C000000,-0724,0832,12197,029.2,045.5,0.470,722.6,01.20,0.508
2014-11-08 02:19:00,2129E-3,5C000000,-0724,0833,12191,029.2,045.5,0.470,722.9,01.20,0.508
2014-11-08 02:20:00,2064E-3,5C000000,-0724,0832,12225,029.1,045.5,0.470,722.7,01.20,0.508
2014-11-08 02:21:00,2030E-3,5C000000,-0724,0832,12172,029.1,045.5,0.470,722.9,01.20,0.508
2014-11-08 02:22:00,2044E-3,5C000000,-0724,0831,12064,029.0,045.5,0.470,722.7,01.20,0.508
2014-11-08 02:23:00,2055E-3,5C000000,-0724,0832,12121,029.0,045.5,0.470,722.9,01.20,0.508
2014-11-08 02:24:00,2006E-3,5C000000,-0724,0833,12198,028.9,045.5,0.470,723.0,01.20,0.508
2014-11-08 02:25:00,2098E-3,5C000000,-0724,0833,12251,028.8,045.5,0.471,722.9,01.20,0.508
2014-11-08 02:26:00,1951E-3,5C000000,-0724,0832,12215,028.7,045.5,0.470,723.0,01.20,0.508
2014-11-08 02:27:00,1977E-3,5C000000,-0724,0831,12124,028.7,045.5,0.471,723.0,01.20,0.508
2014-11-08 02:28:00,2137E-3,5C000000,-0724,0833,12076,028.6,045.5,0.471,723.0,01.20,0.508
2014-11-08 02:29:00,2123E-3,5C000000,-0724,0833,12168,028.6,045.4,0.471,723.0,01.20,0.508
2014-11-08 02:30:00,2112E-3,5C000000,-0724,0832,12061,028.6,045.4,0.471,723.0,01.20,0.508
2014-11-08 02:31:00,2132E-3,5C000000,-0724,0833,12164,028.6,045.4,0.471,722.9,01.20,0.508
2014-11-08 02:32:00,2020E-3,5C000000,-0724,0832,12160,028.6,045.5,0.471,722.9,01.20,0.508
2014-11-08 02:33:00,2077E-3,5C000000,-0724,0832,12114,028.6,045.4,0.471,722.9,01.20,0.508
2014-11-08 02:34:00,2095E-3,5C000000,-0724,0832,12210,028.7,045.5,0.471,723.0,01.20,0.508
2014-11-08 02:35:00,2070E-3,5C000000,-0724,0833,12074,028.7,045.5,0.471,722.8,01.20,0.508
2014-11-08 02:36:00,2092E-3,5C000000,-0724,0832,12094,028.7,045.5,0.471,723.0,01.20,0.508
2014-11-08 02:37:00,2134E-3,5C000000,-0724,0832,12105,028.8,045.5,0.471,723.0,01.20,0.508
2014-11-08 02:38:00,2027E-3,5C000000,-0724,0832,12165,028.8,045.4,0.471,723.0,01.20,0.508
2014-11-08 02:39:00,2182E-3,5C000000,-0724,0833,12153,028.8,045.5,0.471,722.7,01.20,0.508
2014-11-08 02:40:00,2055E-3,5C000000,-0724,0831,12143,028.8,045.5,0.471,723.0,01.20,0.508
2014-11-08 02:41:00,1991E-3,5C000000,-0724,0831,12147,028.9,045.5,0.471,722.8,01.20,0.508
2014-11-08 02:42:00,2010E-3,5C000000,-0724,0832,12337,028.9,045.5,0.471,722.6,01.20,0.508
2014-11-08 02:43:00,2090E-3,5C000000,-0724,0832,12112,028.9,045.5,0.470,723.0,01.20,0.508
2014-11-08 02:44:00,2068E-3,5C000000,-0724,0832,12319,028.9,045.5,0.471,722.8,01.20,0.508
2014-11-08 02:45:00,2042E-3,5C000000,-0724,0831,12146,028.9,045.5,0.471,723.0,01.20,0.508
2014-11-08 02:46:00,2096E-3,5C000000,-0724,0831,12114,029.0,045.4,0.470,723.0,01.20,0.508
2014-11-08 02:47:00,2023E-3,5C000000,-0724,0831,12218,029.0,045.5,0.471,722.7,01.20,0.508
2014-11-08 02:48:00,2029E-3,5C000000,-0724,0833,12153,029.0,045.5,0.470,722.8,01.20,0.508
2014-11-08 02:49:00,2073E-3,5C000000,-0724,0832,12344,029.0,045.5,0.471,722.8,01.20,0.508
2014-11-08 02:50:00,2098E-3,5C000000,-0724,0832,12196,029.0,045.5,0.471,722.8,01.20,0.508
2014-11-08 02:51:00,2009E-3,5C000000,-0724,0831,12141,029.0,045.5,0.470,723.1,01.20,0.508
2014-11-08 02:52:00,2071E-3,5C000000,-0724,0832,12106,029.0,045.5,0.471,723.0,01.20,0.508
2014-11-08 02:53:00,1930E-3,5C000000,-0724,0833,12222,029.0,045.5,0.470,722.8,01.20,0.508
2014-11-08 02:54:00,2017E-3,5C000000,-0724,0831,12025,029.1,045.5,0.471,722.9,01.20,0.508
2014-11-08 02:55:00,1941E-3,5C000000,-0724,0832,12230,029.1,045.5,0.470,722.9,01.20,0.508
2014-11-08 02:56:00,2041E-3,5C000000,-0724,0831,12265,029.1,045.5,0.471,723.0,01.20,0.508
2014-11-08 02:57:00,2030E-3,5C000000,-0724,0832,12269,029.1,045.5,0.470,723.0,01.20,0.508
2014-11-08 02:58:00,2100E-3,5C000000,-0724,0832,12279,029.1,045.5,0.471,722.9,01.20,0.508
2014-11-08 02:59:00,2080E-3,5C000000,-0724,0832,12221,029.1,045.5,0.470,723.1,01.20,0.508
2014-11-08 03:00:00,2045E-3,5C000000,-0724,0833,12183,029.1,045.5,0.470,722.9,01.20,0.508
2014-11-08 03:01:00,1953E-3,5C000000,-0724,0833,12090,029.1,045.5,0.470,722.9,01.20,0.508
2014-11-08 03:02:00,2078E-3,5C000000,-0724,0832,12034,029.2,045.5,0.470,723.1,01.20,0.508
2014-11-08 03:03:00,2044E-3,5C000000,-0724,0832,12226,029.2,045.5,0.470,723.1,01.20,0.508
2014-11-08 03:04:00,1979E-3,5C000000,-0724,0832,12059,029.2,045.5,0.470,723.0,01.20,0.508
2014-11-08 03:05:00,2094E-3,5C000000,-0724,0832,12114,029.2,045.5,0.470,723.0,01.20,0.508
2014-11-08 03:06:00,2044E-3,5C000000,-0724,0831,12218,029.2,045.5,0.470,722.7,01.20,0.508
2014-11-08 03:07:00,1882E-3,5C000000,-0724,0832,12076,029.2,045.5,0.470,723.1,01.20,0.508
2014-11-08 03:08:00,2065E-3,5C000000,-0724,0832,12034,029.2,045.5,0.470,723.3,01.20,0.508
2014-11-08 03:09:00,1815E-3,5C000000,-0724,0833,12271,029.2,045.5,0.470,723.3,01.20,0.508
2014-11-08 03:10:00,1973E-3,5C000000,-0724,0833,12249,029.2,045.5,0.470,723.2,01.20,0.508
2014-11-08 03:11:00,2088E-3,5C000000,-0724,0832,12275,029.2,045.5,0.470,723.0,01.20,0.508
2014-11-08 03:12:00,2038E-3,5C000000,-0724,0833,12105,029.3,045.5,0.470,723.3,01.20,0.508
2014-11-08 03:13:00,1913E-3,5C000000,-0724,0833,12335,029.3,045.5,0.470,723.4,01.20,0.508
2014-11-08 03:14:00,1999E-3,5C000000,-0724,0833,12165,029.3,045.5,0.470,723.2,01.20,0.508
2014-11-08 03:15:00,2033E-3,5C000000,-0724,0833,12266,029.3,045.5,0.470,723.4,01.20,0.508
2014-11-08 03:16:00,2029E-3,5C000000,-0724,0833,12334,029.3,045.5,0.470,723.1,01.20,0.508
2014-11-08 03:17:00,2083E-3,5C000000,-0724,0834,12346,029.3,045.5,0.470,723.2,01.20,0.508
2014-11-08 03:18:00,1948E-3,5C000000,-0724,0832,11838,029.3,045.5,0.470,723.3,01.20,0.508
2014-11-08 03:19:00,2029E-3,5C000000,-0724,0833,12204,029.3,045.5,0.470,723.3,01.20,0.508
2014-11-08 03:20:00,2137E-3,5C000000,-0724,0832,12005,029.3,045.5,0.470,723.3,01.20,0.508
2014-11-08 03:21:00,2106E-3,5C000000,-0724,0832,12155,029.3,045.5,0.470,723.3,01.20,0.508
2014-11-08 03:22:00,2065E-3,5C000000,-0724,0831,12109,029.3,045.5,0.470,723.2,01.20,0.508
2014-11-08 03:23:00,2010E-3,5C000000,-0724,0833,12380,029.3,045.5,0.470,723.3,01.20,0.508
2014-11-08 03:24:00,2096E-3,5C000000,-0724,0832,12205,029.3,045.5,0.470,723.4,01.20,0.508
2014-11-08 03:25:00,2130E-3,5C000000,-0724,0833,12141,029.3,045.5,0.470,723.3,01.20,0.508
2014-11-08 03:26:00,2110E-3,5C000000,-0724,0833,12372,029.3,045.5,0.470,723.3,01.20,0.508
2014-11-08 03:27:00,2017E-3,5C000000,-0724,0832,12252,029.3,045.5,0.470,723.3,01.20,0.508
2014-11-08 03:28:00,2075E-3,5C000000,-0724,0832,12081,029.3,045.5,0.470,723.2,01.20,0.508
2014-11-08 03:29:00,2040E-3,5C000000,-0724,0833,12293,029.3,045.5,0.470,723.2,01.20,0.508
2014-11-08 03:30:00,2052E-3,5C000000,-0724,0832,12183,029.3,045.5,0.470,723.2,01.20,0.508
2014-11-08 03:31:00,2020E-3,5C000000,-0724,0833,11993,029.3,045.5,0.470,723.2,01.20,0.508
2014-11-08 03:32:00,2253E-3,5C000000,-0724,0832,12241,029.3,045.5,0.470,723.3,01.20,0.508
2014-11-08 03:33:00,2131E-3,5C000000,-0724,0832,12218,029.3,045.5,0.470,723.1,01.20,0.508
2014-11-08 03:34:00,2055E-3,5C000000,-0724,0832,12184,029.3,045.5,0.470,723.2,01.20,0.508
2014-11-08 03:35:00,2089E-3,5C000000,-0724,0832,12125,029.3,045.5,0.470,723.0,01.20,0.508
2014-11-08 03:36:00,2122E-3,5C000000,-0724,0832,12139,029.3,045.5,0.470,723.1,01.20,0.508
2014-11-08 03:37:00,2115E-3,5C000000,-0724,0831,12075,029.3,045.5,0.470,723.2,01.20,0.508
2014-11-08 03:38:00,1943E-3,5C000000,-0724,0831,12095,029.3,045.5,0.470,723.2,01.20,0.508
2014-11-08 03:39:00,2075E-3,5C000000,-0724,0831,12178,029.3,045.5,0.470,723.2,01.20,0.508
2014-11-08 03:40:00,2006E-3,5C000000,-0724,0832,12211,029.3,045.5,0.470,723.2,01.20,0.508
2014-11-08 03:41:00,2162E-3,5C000000,-0724,0832,12284,029.3,045.5,0.470,723.1,01.20,0.508
2014-11-08 03:42:00,1962E-3,5C000000,-0724,0832,12236,029.3,045.5,0.470,723.2,01.20,0.508
2014-11-08 03:43:00,2066E-3,5C000000,-0724,0833,12419,029.3,045.5,0.470,723.0,01.20,0.508
2014-11-08 03:44:00,2120E-3,5C000000,-0724,0831,12163,029.3,045.5,0.470,723.1,01.20,0.508
2014-11-08 03:45:00,1987E-3,5C000000,-0724,0832,12108,029.3,045.5,0.470,723.3,01.20,0.508
2014-11-08 03:46:00,2105E-3,5C000000,-0724,0832,12210,029.3,045.5,0.470,723.3,01.20,0.508
2014-11-08 03:47:00,2116E-3,5C000000,-0724,0831,12165,029.4,045.5,0.470,723.1,01.20,0.508
2014-11-08 03:48:00,1938E-3,5C000000,-0724,0833,12127,029.3,045.5,0.470,723.2,01.20,0.508
2014-11-08 03:49:00,2045E-3,5C000000,-0724,0833,12303,029.3,045.5,0.470,723.3,01.20,0.508
2014-11-08 03:50:00,2176E-3,5C000000,-0724,0831,12226,029.3,045.5,0.470,723.0,01.20,0.508
2014-11-08 03:51:00,2049E-3,5C000000,-0724,0831,12095,029.3,045.5,0.470,723.1,01.20,0.508
2014-11-08 03:52:00,2153E-3,5C000000,-0724,0832,12231,029.3,045.5,0.470,723.1,01.20,0.508
2014-11-08 03:53:00,2105E-3,5C000000,-0724,0832,12154,029.3,045.5,0.470,723.3,01.20,0.508
2014-11-08 03:54:00,2049E-3,5C000000,-0724,0833,12179,029.3,045.5,0.470,723.3,01.20,0.508
2014-11-08 03:55:00,2166E-3,5C000000,-0724,0832,12170,029.3,045.5,0.470,723.2,01.20,0.508
2014-11-08 03:56:00,1899E-3,5C000000,-0724,0833,12113,029.3,045.5,0.470,723.2,01.20,0.508
2014-11-08 03:57:00,2032E-3,5C000000,-0724,0833,12313,029.4,045.5,0.470,723.3,01.20,0.508
2014-11-08 03:58:00,2115E-3,5C000000,-0724,0831,12125,029.3,045.5,0.470,723.4,01.20,0.508
2014-11-08 03:59:00,2070E-3,5C000000,-0724,0833,12087,029.3,045.5,0.470,723.4,01.20,0.508
2014-11-08 04:00:00,2121E-3,5C000000,-0724,0832,12233,029.3,045.5,0.470,723.0,01.20,0.508
2014-11-08 04:01:00,2039E-3,5C000000,-0724,0831,12096,029.3,045.5,0.470,723.1,01.20,0.508
2014-11-08 04:02:00,2101E-3,5C000000,-0724,0832,12154,029.3,045.5,0.470,723.4,01.20,0.508
2014-11-08 04:03:00,2115E-3,5C000000,-0724,0832,12074,029.3,045.5,0.470,723.2,01.20,0.508
2014-11-08 04:04:00,2048E-3,5C000000,-0724,0833,12181,029.3,045.5,0.470,723.4,01.20,0.508
2014-11-08 04:05:00,2040E-3,5C000000,-0724,0832,12278,029.3,045.5,0.470,723.4,01.20,0.508
2014-11-08 04:06:00,1901E-3,5C000000,-0724,0833,12210,029.3,045.5,0.470,723.5,01.20,0.508
2014-11-08 04:07:00,2126E-3,5C000000,-0724,0831,12140,029.3,045.5,0.470,723.4,01.20,0.508
2014-11-08 04:08:00,2025E-3,5C000000,-0724,0832,12187,029.3,045.5,0.470,723.6,01.20,0.508
2014-11-08 04:09:00,1884E-3,5C000000,-0724,0831,12154,029.3,045.5,0.470,723.6,01.20,0.508
2014-11-08 04:10:00,2147E-3,5C000000,-0724,0831,12251,029.3,045.5,0.470,723.5,01.20,0.508
2014-11-08 04:11:00,2027E-3,5C000000,-0724,0833,12198,029.3,045.5,0.470,723.5,01.20,0.508
2014-11-08 04:12:00,2038E-3,5C000000,-0724,0833,12216,029.3,045.5,0.470,723.6,01.20,0.508
2014-11-08 04:13:00,1987E-3,5C000000,-0724,0833,11945,029.3,045.5,0.470,723.2,01.20,0.508
2014-11-08 04:14:00,2099E-3,5C000000,-0724,0833,12164,029.3,045.5,0.470,723.5,01.20,0.508
2014-11-08 04:15:00,2011E-3,5C000000,-0724,0833,12206,029.3,045.5,0.470,723.3,01.20,0.508
2014-11-08 04:16:00,2029E-3,5C000000,-0724,0833,12245,029.3,045.5,0.470,723.4,01.20,0.508
2014-11-08 04:17:00,1983E-3,5C000000,-0724,0832,12342,029.3,045.5,0.470,723.5,01.20,0.508
2014-11-08 04:18:00,2029E-3,5C000000,-0724,0832,12233,029.3,045.5,0.470,723.5,01.20,0.508
2014-11-08 04:19:00,1940E-3,5C000000,-0724,0833,12042,029.3,045.5,0.471,723.4,01.20,0.508
2014-11-08 04:20:00,2065E-3,5C000000,-0724,0833,12062,029.3,045.5,0.470,723.5,01.20,0.508